FIN31R EFHK-EGPH

Flight info

Callsign FIN31R
Flight time 2h 39m
Altitude 34000
Route ADIVO Y365 POGOK DCT VATEX DCT IBSAT DCT KLONN DCT ADN/N0394F240 P600 PTH
Aircraft A321/M-SDE3FGHIRWY/LB1

Departure

Time 2026-04-23 14:00
Airport Helsinki Vantaa Airport (EFHK)

Arrival

Time 2026-04-23 16:39
Airport Edinburgh Airport (EGPH)
Time Latitude Longitude Altitude Speed Heading
2026-04-23 13:07 60.31672 24.96029 167 ft 0 kts 137°
2026-04-23 13:44 60.31683 24.96008 166 ft 4 kts 137°
2026-04-23 13:45 60.31696 24.95984 166 ft 4 kts 134°
2026-04-23 13:45 60.31715 24.95926 166 ft 3 kts 101°
2026-04-23 13:45 60.31715 24.95877 166 ft 3 kts 59°
2026-04-23 13:45 60.31708 24.95858 166 ft 1 kts 47°
2026-04-23 13:46 60.31708 24.95857 166 ft 0 kts 47°
2026-04-23 13:49 60.31710 24.95862 166 ft 2 kts 47°
2026-04-23 13:49 60.31724 24.95894 166 ft 4 kts 47°
2026-04-23 13:49 60.31746 24.95942 166 ft 5 kts 47°
2026-04-23 13:50 60.31776 24.96007 166 ft 7 kts 47°
2026-04-23 13:50 60.31811 24.96084 166 ft 8 kts 47°
2026-04-23 13:50 60.31849 24.96183 166 ft 9 kts 67°
2026-04-23 13:50 60.31863 24.96323 166 ft 11 kts 71°
2026-04-23 13:51 60.31911 24.96447 166 ft 12 kts 46°
2026-04-23 13:51 60.31970 24.96573 166 ft 13 kts 47°
2026-04-23 13:51 60.32030 24.96711 166 ft 13 kts 47°
2026-04-23 13:51 60.32090 24.96861 166 ft 13 kts 78°
2026-04-23 13:52 60.32028 24.96985 166 ft 14 kts 152°
2026-04-23 13:52 60.31939 24.97078 166 ft 15 kts 153°
2026-04-23 13:52 60.31876 24.97142 166 ft 16 kts 153°
2026-04-23 13:52 60.31740 24.97282 166 ft 17 kts 153°
2026-04-23 13:53 60.31667 24.97356 166 ft 18 kts 153°
2026-04-23 13:53 60.31548 24.97478 162 ft 21 kts 153°
2026-04-23 13:53 60.31414 24.97624 159 ft 16 kts 152°
2026-04-23 13:53 60.31381 24.97772 157 ft 14 kts 104°
2026-04-23 13:54 60.31307 24.97879 158 ft 11 kts 154°
2026-04-23 13:54 60.31237 24.97951 158 ft 9 kts 152°
2026-04-23 13:54 60.31198 24.97994 159 ft 10 kts 152°
2026-04-23 13:54 60.31134 24.98057 159 ft 11 kts 154°
2026-04-23 13:55 60.31058 24.98133 158 ft 13 kts 153°
2026-04-23 13:55 60.30972 24.98218 158 ft 14 kts 154°
2026-04-23 13:55 60.30877 24.98295 158 ft 15 kts 159°
2026-04-23 13:55 60.30780 24.98377 159 ft 16 kts 156°
2026-04-23 13:56 60.30673 24.98471 158 ft 18 kts 157°
2026-04-23 13:56 60.30620 24.98521 158 ft 4 kts 143°
2026-04-23 13:56 60.30604 24.98581 158 ft 6 kts 107°
2026-04-23 13:56 60.30623 24.98666 157 ft 8 kts 43°
2026-04-23 13:57 60.30678 24.98712 157 ft 9 kts 26°
2026-04-23 13:57 60.30706 24.98786 158 ft 0 kts 62°
2026-04-23 13:57 60.30707 24.98792 158 ft 1 kts 62°
2026-04-23 13:57 60.30712 24.98807 158 ft 1 kts 54°
2026-04-23 13:58 60.30722 24.98815 158 ft 2 kts 16°
2026-04-23 13:58 60.30733 24.98807 158 ft 2 kts 332°
2026-04-23 13:58 60.30747 24.98790 158 ft 0 kts 331°
2026-04-23 13:59 60.30754 24.98783 158 ft 5 kts 331°
2026-04-23 13:59 60.30874 24.98658 155 ft 46 kts 333°
2026-04-23 13:59 60.31355 24.98172 157 ft 108 kts 333°
2026-04-23 13:59 60.32192 24.97310 158 ft 159 kts 333°
2026-04-23 14:00 60.32882 24.96598 304 ft 175 kts 334°
2026-04-23 14:00 60.34408 24.95071 882 ft 193 kts 334°
2026-04-23 14:00 60.35455 24.93512 1406 ft 186 kts 311°
2026-04-23 14:00 60.35887 24.91084 1885 ft 191 kts 275°
2026-04-23 14:01 60.35494 24.88479 2354 ft 202 kts 240°
2026-04-23 14:01 60.34722 24.86090 3016 ft 202 kts 243°
2026-04-23 14:01 60.34005 24.83586 3359 ft 214 kts 248°
2026-04-23 14:01 60.33327 24.80756 3497 ft 235 kts 249°
2026-04-23 14:02 60.32589 24.77614 3702 ft 256 kts 249°
2026-04-23 14:02 60.31792 24.74332 4301 ft 263 kts 247°
2026-04-23 14:02 60.30960 24.71014 5032 ft 267 kts 247°
2026-04-23 14:02 60.30114 24.67643 5682 ft 271 kts 251°
2026-04-23 14:03 60.29722 24.63975 6321 ft 267 kts 274°
2026-04-23 14:03 60.29734 24.60259 6956 ft 270 kts 275°
2026-04-23 14:03 60.29746 24.56452 7598 ft 272 kts 275°
2026-04-23 14:03 60.29753 24.52626 8254 ft 274 kts 276°
2026-04-23 14:04 60.29758 24.48772 8910 ft 274 kts 276°
2026-04-23 14:04 60.29765 24.44922 9587 ft 276 kts 277°
2026-04-23 14:04 60.29774 24.41042 10239 ft 277 kts 277°
2026-04-23 14:04 60.29781 24.37145 10848 ft 279 kts 278°
2026-04-23 14:05 60.29785 24.33225 11480 ft 280 kts 278°
2026-04-23 14:05 60.29787 24.29276 12124 ft 281 kts 279°
2026-04-23 14:05 60.29787 24.25326 12786 ft 282 kts 279°
2026-04-23 14:05 60.29783 24.21381 13458 ft 282 kts 279°
2026-04-23 14:06 60.29778 24.17478 14084 ft 281 kts 280°
2026-04-23 14:06 60.29772 24.13548 14613 ft 284 kts 280°
2026-04-23 14:06 60.29773 24.09483 14883 ft 296 kts 280°
2026-04-23 14:06 60.29775 24.05252 15158 ft 307 kts 279°
2026-04-23 14:07 60.29773 24.00875 15436 ft 319 kts 279°
2026-04-23 14:07 60.29066 23.91553 16000 ft 351 kts 266°
2026-04-23 14:07 60.28537 23.86678 16281 ft 361 kts 266°
2026-04-23 14:08 60.27994 23.81666 16571 ft 370 kts 266°
2026-04-23 14:08 60.27436 23.76533 16861 ft 378 kts 266°
2026-04-23 14:08 60.26865 23.71341 17148 ft 381 kts 266°
2026-04-23 14:08 60.26290 23.66128 17439 ft 383 kts 266°
2026-04-23 14:09 60.25708 23.60883 17740 ft 385 kts 266°
2026-04-23 14:09 60.25128 23.55686 18028 ft 386 kts 266°
2026-04-23 14:09 60.24538 23.50402 18310 ft 388 kts 266°
2026-04-23 14:09 60.23947 23.45096 18564 ft 389 kts 266°
2026-04-23 14:10 60.23351 23.39770 18818 ft 391 kts 266°
2026-04-23 14:10 60.22752 23.34423 19082 ft 392 kts 266°
2026-04-23 14:10 60.22151 23.29062 19346 ft 394 kts 266°
2026-04-23 14:10 60.21545 23.23681 19605 ft 395 kts 266°
2026-04-23 14:11 60.20931 23.18273 19866 ft 397 kts 266°
2026-04-23 14:11 60.20311 23.12831 20255 ft 401 kts 266°
2026-04-23 14:11 60.19684 23.07343 20683 ft 404 kts 266°
2026-04-23 14:11 60.19050 23.01815 21104 ft 407 kts 266°
2026-04-23 14:12 60.18408 22.96254 21509 ft 410 kts 266°
2026-04-23 14:12 60.17759 22.90667 21915 ft 413 kts 266°
2026-04-23 14:12 60.17103 22.85029 22305 ft 416 kts 266°
2026-04-23 14:12 60.16438 22.79350 22693 ft 418 kts 266°
2026-04-23 14:13 60.15777 22.73727 23071 ft 421 kts 266°
2026-04-23 14:13 60.15097 22.67981 23443 ft 424 kts 266°
2026-04-23 14:13 60.14411 22.62198 23745 ft 427 kts 266°
2026-04-23 14:13 60.13720 22.56382 24045 ft 430 kts 265°
2026-04-23 14:14 60.13022 22.50539 24354 ft 432 kts 265°
2026-04-23 14:14 60.12317 22.44659 24655 ft 435 kts 265°
2026-04-23 14:14 60.11608 22.38756 24940 ft 437 kts 265°
2026-04-23 14:14 60.10889 22.32812 25232 ft 440 kts 265°
2026-04-23 14:15 60.10164 22.26849 25518 ft 442 kts 265°
2026-04-23 14:15 60.09431 22.20853 25801 ft 444 kts 265°
2026-04-23 14:15 60.08695 22.14825 26096 ft 446 kts 265°
2026-04-23 14:15 60.07952 22.08776 26372 ft 449 kts 265°
2026-04-23 14:16 60.07200 22.02688 26654 ft 451 kts 265°
2026-04-23 14:16 60.06443 21.96589 26929 ft 453 kts 265°
2026-04-23 14:16 60.05679 21.90449 27200 ft 455 kts 265°
2026-04-23 14:16 60.04909 21.84285 27476 ft 457 kts 264°
2026-04-23 14:17 60.04133 21.78102 27740 ft 459 kts 264°
2026-04-23 14:17 60.03348 21.71892 28008 ft 461 kts 264°
2026-04-23 14:17 60.02558 21.65656 28272 ft 463 kts 264°
2026-04-23 14:17 60.01776 21.59484 28525 ft 465 kts 264°
2026-04-23 14:18 60.00975 21.53208 28730 ft 467 kts 264°
2026-04-23 14:18 60.00163 21.46913 28791 ft 468 kts 264°
2026-04-23 14:18 59.98948 21.34305 28792 ft 454 kts 275°
2026-04-23 14:19 59.98533 21.21719 28794 ft 454 kts 275°
2026-04-23 14:19 59.98105 21.09127 28792 ft 455 kts 275°
2026-04-23 14:20 59.97658 20.96518 28795 ft 455 kts 275°
2026-04-23 14:20 59.97193 20.83910 28797 ft 455 kts 274°
2026-04-23 14:21 59.96713 20.71314 28806 ft 455 kts 274°
2026-04-23 14:21 59.96222 20.58790 28803 ft 455 kts 274°
2026-04-23 14:22 59.95722 20.46205 28810 ft 455 kts 274°
2026-04-23 14:22 59.95215 20.33624 28816 ft 454 kts 274°
2026-04-23 14:23 59.94696 20.21060 28817 ft 454 kts 274°
2026-04-23 14:23 59.94162 20.08518 28826 ft 454 kts 274°
2026-04-23 14:24 59.93617 19.95989 28827 ft 453 kts 274°
2026-04-23 14:24 59.93064 19.83541 28822 ft 453 kts 273°
2026-04-23 14:25 59.92495 19.71050 28827 ft 452 kts 273°
2026-04-23 14:25 59.91915 19.58557 29032 ft 454 kts 273°
2026-04-23 14:26 59.91619 19.52280 29320 ft 455 kts 273°
2026-04-23 14:26 59.91322 19.45996 29619 ft 457 kts 273°
2026-04-23 14:26 59.91019 19.39682 29962 ft 456 kts 273°
2026-04-23 14:26 59.90713 19.33403 30340 ft 454 kts 273°
2026-04-23 14:27 59.90404 19.27146 30701 ft 452 kts 273°
2026-04-23 14:27 59.90094 19.20928 31072 ft 450 kts 273°
2026-04-23 14:27 59.89784 19.14752 31429 ft 447 kts 273°
2026-04-23 14:27 59.89471 19.08601 31793 ft 445 kts 273°
2026-04-23 14:28 59.89159 19.02493 32144 ft 442 kts 273°
2026-04-23 14:28 59.88847 18.96417 32502 ft 440 kts 273°
2026-04-23 14:28 59.88535 18.90375 32839 ft 438 kts 273°
2026-04-23 14:28 59.88225 18.84436 33168 ft 436 kts 273°
2026-04-23 14:29 59.87907 18.78444 33494 ft 434 kts 273°
2026-04-23 14:29 59.87586 18.72472 33825 ft 432 kts 273°
2026-04-23 14:29 59.87264 18.66536 33998 ft 431 kts 273°
2026-04-23 14:29 59.86941 18.60611 34033 ft 429 kts 274°
2026-04-23 14:30 59.86291 18.48829 34033 ft 428 kts 273°
2026-04-23 14:30 59.85638 18.37065 34031 ft 428 kts 273°
2026-04-23 14:31 59.84978 18.25317 34028 ft 427 kts 273°
2026-04-23 14:31 59.84302 18.13569 34030 ft 427 kts 273°
2026-04-23 14:32 59.83625 18.01906 34028 ft 428 kts 273°
2026-04-23 14:32 59.82925 17.90169 34024 ft 428 kts 272°
2026-04-23 14:33 59.82214 17.78433 34021 ft 428 kts 272°
2026-04-23 14:33 59.81495 17.66694 34020 ft 428 kts 272°
2026-04-23 14:34 59.80764 17.54970 34023 ft 428 kts 272°
2026-04-23 14:34 59.80025 17.43246 34026 ft 428 kts 272°
2026-04-23 14:35 59.79282 17.31529 34030 ft 428 kts 272°
2026-04-23 14:35 59.78518 17.19811 34029 ft 428 kts 272°
2026-04-23 14:36 59.77749 17.08173 34028 ft 428 kts 272°
2026-04-23 14:36 59.76964 16.96475 34030 ft 428 kts 272°
2026-04-23 14:37 59.76173 16.84781 34025 ft 428 kts 271°
2026-04-23 14:37 59.75375 16.73091 34023 ft 427 kts 271°
2026-04-23 14:38 59.74563 16.61414 34027 ft 427 kts 271°
2026-04-23 14:38 59.73734 16.49738 34029 ft 427 kts 271°
2026-04-23 14:39 59.72897 16.38148 34026 ft 427 kts 271°
2026-04-23 14:39 59.72051 16.26488 34040 ft 427 kts 271°
2026-04-23 14:40 59.71203 16.14846 34037 ft 427 kts 270°
2026-04-23 14:40 59.70340 16.03188 34048 ft 427 kts 270°
2026-04-23 14:41 59.69470 15.91545 34057 ft 427 kts 270°
2026-04-23 14:41 59.68594 15.79997 34058 ft 427 kts 270°
2026-04-23 14:42 59.67698 15.68378 34059 ft 427 kts 270°
2026-04-23 14:42 59.66791 15.56771 34065 ft 427 kts 269°
2026-04-23 14:43 59.65887 15.45181 34067 ft 427 kts 269°
2026-04-23 14:43 59.64968 15.33595 34078 ft 426 kts 269°
2026-04-23 14:44 59.64032 15.22016 34078 ft 426 kts 269°
2026-04-23 14:44 59.63083 15.10458 34080 ft 426 kts 269°
2026-04-23 14:45 59.62127 14.98907 34082 ft 426 kts 268°
2026-04-23 14:45 59.61164 14.87371 34088 ft 425 kts 268°
2026-04-23 14:46 59.60190 14.75840 34083 ft 425 kts 268°
2026-04-23 14:46 59.59212 14.64401 34094 ft 425 kts 268°
2026-04-23 14:47 59.58223 14.52900 34092 ft 425 kts 268°
2026-04-23 14:47 59.57224 14.41418 34095 ft 424 kts 268°
2026-04-23 14:48 59.56219 14.29956 34094 ft 424 kts 267°
2026-04-23 14:48 59.55198 14.18496 34098 ft 424 kts 267°
2026-04-23 14:49 59.54169 14.07059 34104 ft 424 kts 267°
2026-04-23 14:49 59.53136 13.95713 34101 ft 423 kts 267°
2026-04-23 14:50 59.52086 13.84303 34097 ft 423 kts 266°
2026-04-23 14:50 59.51028 13.72902 34093 ft 423 kts 266°
2026-04-23 14:51 59.49965 13.61512 34083 ft 423 kts 266°
2026-04-23 14:51 59.48893 13.50134 34076 ft 423 kts 266°
2026-04-23 14:52 59.47807 13.38764 34075 ft 423 kts 266°
2026-04-23 14:52 59.46705 13.27396 34074 ft 423 kts 265°
2026-04-23 14:53 59.45778 13.17874 34068 ft 423 kts 265°
2026-04-23 14:53 59.44664 13.06511 34073 ft 423 kts 265°
2026-04-23 14:54 59.43550 12.95225 34089 ft 423 kts 265°
2026-04-23 14:54 59.42416 12.83863 34098 ft 424 kts 265°
2026-04-23 14:55 59.41272 12.72504 34098 ft 424 kts 265°
2026-04-23 14:55 59.40119 12.61153 34100 ft 424 kts 264°
2026-04-23 14:56 59.38956 12.49797 34115 ft 424 kts 264°
2026-04-23 14:56 59.37775 12.38449 34121 ft 425 kts 264°
2026-04-23 14:57 59.36587 12.27112 34122 ft 425 kts 264°
2026-04-23 14:57 59.35398 12.15834 34125 ft 425 kts 264°
2026-04-23 14:58 59.34191 12.04490 34125 ft 425 kts 264°
2026-04-23 14:58 59.32970 11.93168 34133 ft 425 kts 263°
2026-04-23 14:59 59.31739 11.81818 34137 ft 425 kts 264°
2026-04-23 14:59 59.30828 11.70438 34142 ft 422 kts 268°
2026-04-23 15:00 59.30186 11.59114 34143 ft 421 kts 269°
2026-04-23 15:00 59.29506 11.47721 34174 ft 422 kts 268°
2026-04-23 15:01 59.28731 11.36346 34255 ft 422 kts 266°
2026-04-23 15:01 59.27915 11.24986 34325 ft 422 kts 266°
2026-04-23 15:02 59.27103 11.13615 34397 ft 422 kts 266°
2026-04-23 15:02 59.26284 11.02238 34464 ft 422 kts 266°
2026-04-23 15:03 59.25445 10.90882 34487 ft 422 kts 266°
2026-04-23 15:03 59.24598 10.79519 34488 ft 422 kts 266°
2026-04-23 15:04 59.23752 10.68169 34490 ft 422 kts 265°
2026-04-23 15:04 59.22891 10.56883 34445 ft 422 kts 265°
2026-04-23 15:05 59.22455 10.51213 34139 ft 422 kts 265°
2026-04-23 15:05 59.22018 10.45526 34134 ft 422 kts 265°
2026-04-23 15:05 59.21142 10.34198 34137 ft 422 kts 265°
2026-04-23 15:06 59.20249 10.22876 34139 ft 422 kts 265°
2026-04-23 15:06 59.19348 10.11560 34139 ft 422 kts 264°
2026-04-23 15:07 59.18448 10.00336 34139 ft 422 kts 264°
2026-04-23 15:07 59.17522 9.88963 34147 ft 422 kts 264°
2026-04-23 15:08 59.16597 9.77758 34148 ft 421 kts 264°
2026-04-23 15:09 59.15190 9.60832 34153 ft 422 kts 264°
2026-04-23 15:09 59.14235 9.49558 34153 ft 422 kts 263°
2026-04-23 15:10 59.13441 9.40196 34160 ft 422 kts 263°
2026-04-23 15:10 59.12314 9.27030 34160 ft 422 kts 263°
2026-04-23 15:11 59.11333 9.15789 34159 ft 422 kts 263°
2026-04-23 15:11 59.10335 9.04545 34161 ft 422 kts 263°
2026-04-23 15:12 59.09343 8.93377 34154 ft 422 kts 263°
2026-04-23 15:12 59.08334 8.82155 34160 ft 422 kts 262°
2026-04-23 15:13 59.07314 8.70927 34164 ft 422 kts 262°
2026-04-23 15:13 59.06281 8.59711 34169 ft 421 kts 262°
2026-04-23 15:14 59.05241 8.48512 34173 ft 421 kts 262°
2026-04-23 15:14 59.04202 8.37323 34177 ft 421 kts 262°
2026-04-23 15:15 59.03140 8.26136 34179 ft 421 kts 261°
2026-04-23 15:15 59.02056 8.14960 34182 ft 421 kts 261°
2026-04-23 15:16 59.00973 8.03789 34190 ft 421 kts 261°
2026-04-23 15:16 58.99884 7.92615 34199 ft 421 kts 261°
2026-04-23 15:17 58.98787 7.81455 34206 ft 421 kts 261°
2026-04-23 15:17 58.97691 7.70377 34215 ft 421 kts 260°
2026-04-23 15:18 58.96578 7.59228 34226 ft 421 kts 260°
2026-04-23 15:18 58.95448 7.48084 34240 ft 421 kts 260°
2026-04-23 15:19 58.94311 7.36950 34253 ft 421 kts 259°
2026-04-23 15:19 58.93177 7.25894 34260 ft 422 kts 259°
2026-04-23 15:20 58.92023 7.14773 34273 ft 422 kts 259°
2026-04-23 15:20 58.90856 7.03656 34283 ft 422 kts 259°
2026-04-23 15:21 58.89679 6.92537 34283 ft 422 kts 259°
2026-04-23 15:21 58.88500 6.81424 34292 ft 422 kts 259°
2026-04-23 15:22 58.87308 6.70412 34297 ft 422 kts 258°
2026-04-23 15:22 58.86100 6.59313 34307 ft 422 kts 258°
2026-04-23 15:23 58.84887 6.48237 34326 ft 421 kts 258°
2026-04-23 15:23 58.83677 6.37255 34331 ft 421 kts 258°
2026-04-23 15:24 58.82448 6.26205 34346 ft 420 kts 258°
2026-04-23 15:24 58.81216 6.15200 34374 ft 420 kts 258°
2026-04-23 15:25 58.79974 6.04212 34387 ft 419 kts 257°
2026-04-23 15:25 58.78727 5.93317 34399 ft 418 kts 257°
2026-04-23 15:26 58.77466 5.82386 34394 ft 418 kts 257°
2026-04-23 15:26 58.76201 5.71472 34406 ft 417 kts 257°
2026-04-23 15:27 58.74933 5.60569 34393 ft 417 kts 257°
2026-04-23 15:27 58.73657 5.49706 34397 ft 416 kts 257°
2026-04-23 15:28 58.72379 5.38928 34398 ft 415 kts 257°
2026-04-23 15:28 58.71080 5.28104 34399 ft 415 kts 256°
2026-04-23 15:29 58.69772 5.17299 34400 ft 415 kts 256°
2026-04-23 15:29 58.68463 5.06494 34401 ft 415 kts 256°
2026-04-23 15:30 58.67155 4.95773 34405 ft 415 kts 256°
2026-04-23 15:30 58.65820 4.84996 34414 ft 415 kts 256°
2026-04-23 15:31 58.64472 4.74221 34418 ft 415 kts 256°
2026-04-23 15:31 58.63123 4.63452 34421 ft 415 kts 255°
2026-04-23 15:32 58.61780 4.52755 34429 ft 415 kts 255°
2026-04-23 15:32 58.60419 4.42001 34432 ft 415 kts 255°
2026-04-23 15:33 58.59049 4.31264 34440 ft 415 kts 255°
2026-04-23 15:33 58.57666 4.20537 34442 ft 414 kts 255°
2026-04-23 15:34 58.56282 4.09907 34448 ft 414 kts 254°
2026-04-23 15:34 58.54882 3.99221 34452 ft 413 kts 254°
2026-04-23 15:35 58.53479 3.88555 34458 ft 413 kts 254°
2026-04-23 15:35 58.52068 3.77924 34466 ft 413 kts 254°
2026-04-23 15:36 58.50640 3.67279 34471 ft 412 kts 254°
2026-04-23 15:36 58.49221 3.56736 34473 ft 412 kts 253°
2026-04-23 15:37 58.47779 3.46145 34475 ft 412 kts 253°
2026-04-23 15:37 58.46582 3.37358 34483 ft 411 kts 253°
2026-04-23 15:38 58.44894 3.25007 34487 ft 411 kts 253°
2026-04-23 15:38 58.43456 3.14533 34485 ft 411 kts 253°
2026-04-23 15:39 58.42000 3.03986 34491 ft 411 kts 252°
2026-04-23 15:39 58.40521 2.93469 34495 ft 410 kts 252°
2026-04-23 15:40 58.39017 2.82986 34502 ft 410 kts 251°
2026-04-23 15:40 58.37249 2.72694 34501 ft 408 kts 248°
2026-04-23 15:41 58.35299 2.62619 34501 ft 408 kts 247°
2026-04-23 15:41 58.33325 2.52499 34503 ft 408 kts 248°
2026-04-23 15:42 58.31387 2.42347 34506 ft 408 kts 248°
2026-04-23 15:42 58.29466 2.32198 34505 ft 408 kts 248°
2026-04-23 15:43 58.27546 2.22125 34512 ft 408 kts 248°
2026-04-23 15:43 58.25603 2.11998 34508 ft 408 kts 247°
2026-04-23 15:44 58.23641 2.01891 34518 ft 408 kts 247°
2026-04-23 15:44 58.21673 1.91792 34518 ft 408 kts 247°
2026-04-23 15:45 58.19715 1.81778 34520 ft 408 kts 246°
2026-04-23 15:45 58.17738 1.71695 34524 ft 408 kts 246°
2026-04-23 15:46 58.15748 1.61632 34529 ft 408 kts 246°
2026-04-23 15:46 58.13753 1.51573 34522 ft 408 kts 246°
2026-04-23 15:47 58.11762 1.41587 34525 ft 408 kts 246°
2026-04-23 15:47 58.09745 1.31556 34532 ft 408 kts 246°
2026-04-23 15:48 58.07727 1.21525 34528 ft 408 kts 246°
2026-04-23 15:48 58.05701 1.11505 34534 ft 408 kts 246°
2026-04-23 15:49 58.03659 1.01501 34530 ft 408 kts 245°
2026-04-23 15:49 58.01626 0.91574 34535 ft 408 kts 245°
2026-04-23 15:50 57.99582 0.81582 34536 ft 408 kts 245°
2026-04-23 15:50 57.97521 0.71606 34539 ft 408 kts 245°
2026-04-23 15:51 57.95444 0.61649 34537 ft 408 kts 245°
2026-04-23 15:51 57.93383 0.51762 34541 ft 409 kts 245°
2026-04-23 15:52 57.91302 0.41806 34534 ft 409 kts 245°
2026-04-23 15:52 57.89205 0.31860 34531 ft 409 kts 245°
2026-04-23 15:53 57.87101 0.21907 34530 ft 410 kts 245°
2026-04-23 15:53 57.84985 0.11953 34532 ft 410 kts 245°
2026-04-23 15:54 57.82872 0.02079 34539 ft 411 kts 245°
2026-04-23 15:54 57.80730 -0.07865 34535 ft 411 kts 245°
2026-04-23 15:55 57.78584 -0.17815 34525 ft 412 kts 245°
2026-04-23 15:55 57.76425 -0.27779 34519 ft 413 kts 245°
2026-04-23 15:56 57.74267 -0.37704 34514 ft 415 kts 245°
2026-04-23 15:56 57.72067 -0.47709 34511 ft 417 kts 245°
2026-04-23 15:57 57.69856 -0.57764 34505 ft 419 kts 246°
2026-04-23 15:57 57.67632 -0.67840 34508 ft 420 kts 246°
2026-04-23 15:58 57.65399 -0.77875 34512 ft 422 kts 246°
2026-04-23 15:58 57.63135 -0.87994 34510 ft 423 kts 246°
2026-04-23 15:59 57.60859 -0.98149 34507 ft 425 kts 246°
2026-04-23 15:59 57.58572 -1.08320 34507 ft 426 kts 246°
2026-04-23 16:00 57.56272 -1.18511 34506 ft 427 kts 246°
2026-04-23 16:00 57.55135 -1.23507 34236 ft 421 kts 246°
2026-04-23 16:00 57.53993 -1.28500 33957 ft 417 kts 246°
2026-04-23 16:00 57.52860 -1.33442 33683 ft 415 kts 247°
2026-04-23 16:01 57.51726 -1.38372 33416 ft 413 kts 247°
2026-04-23 16:01 57.50595 -1.43279 33157 ft 412 kts 247°
2026-04-23 16:01 57.49472 -1.48170 32890 ft 411 kts 247°
2026-04-23 16:01 57.48352 -1.53044 32627 ft 410 kts 247°
2026-04-23 16:02 57.47233 -1.57898 32367 ft 408 kts 247°
2026-04-23 16:02 57.46127 -1.62673 32123 ft 407 kts 247°
2026-04-23 16:02 57.45009 -1.67489 31863 ft 405 kts 247°
2026-04-23 16:02 57.43896 -1.72285 31619 ft 404 kts 247°
2026-04-23 16:03 57.42787 -1.77059 31359 ft 402 kts 247°
2026-04-23 16:03 57.41678 -1.81817 31110 ft 401 kts 247°
2026-04-23 16:03 57.40572 -1.86545 30862 ft 399 kts 246°
2026-04-23 16:03 57.39467 -1.91257 30617 ft 397 kts 246°
2026-04-23 16:04 57.38369 -1.95918 30225 ft 393 kts 246°
2026-04-23 16:04 57.37292 -2.00475 29750 ft 390 kts 246°
2026-04-23 16:04 57.36207 -2.05062 29286 ft 387 kts 246°
2026-04-23 16:04 57.35132 -2.09602 28835 ft 384 kts 246°
2026-04-23 16:05 57.34421 -2.12604 28545 ft 383 kts 246°
2026-04-23 16:05 57.32995 -2.18607 27986 ft 379 kts 246°
2026-04-23 16:05 57.31847 -2.22979 27597 ft 377 kts 239°
2026-04-23 16:05 57.30298 -2.26863 27457 ft 376 kts 228°
2026-04-23 16:06 57.28378 -2.30158 27494 ft 379 kts 218°
2026-04-23 16:06 57.26226 -2.32981 27407 ft 381 kts 216°
2026-04-23 16:06 57.24091 -2.35750 27143 ft 379 kts 216°
2026-04-23 16:06 57.21940 -2.38542 26885 ft 377 kts 216°
2026-04-23 16:07 57.19798 -2.41322 26629 ft 376 kts 216°
2026-04-23 16:07 57.17667 -2.44093 26385 ft 374 kts 216°
2026-04-23 16:07 57.15540 -2.46856 26136 ft 373 kts 216°
2026-04-23 16:07 57.13422 -2.49595 25885 ft 372 kts 216°
2026-04-23 16:08 57.11305 -2.52318 25638 ft 370 kts 216°
2026-04-23 16:08 57.09198 -2.55024 25409 ft 369 kts 216°
2026-04-23 16:08 57.07126 -2.57687 25166 ft 368 kts 216°
2026-04-23 16:08 57.05033 -2.60373 24923 ft 366 kts 216°
2026-04-23 16:09 57.02947 -2.63047 24683 ft 365 kts 216°
2026-04-23 16:09 57.00866 -2.65711 24455 ft 364 kts 216°
2026-04-23 16:09 56.98796 -2.68355 24220 ft 363 kts 216°
2026-04-23 16:09 56.96724 -2.70999 23981 ft 361 kts 216°
2026-04-23 16:10 56.94663 -2.73626 23700 ft 360 kts 216°
2026-04-23 16:10 56.92613 -2.76239 23435 ft 359 kts 216°
2026-04-23 16:10 56.90568 -2.78845 23155 ft 357 kts 216°
2026-04-23 16:10 56.88561 -2.81409 22890 ft 356 kts 216°
2026-04-23 16:11 56.86532 -2.83994 22620 ft 355 kts 216°
2026-04-23 16:11 56.84513 -2.86557 22355 ft 353 kts 216°
2026-04-23 16:11 56.82504 -2.89101 22105 ft 349 kts 216°
2026-04-23 16:11 56.80518 -2.91608 21795 ft 344 kts 216°
2026-04-23 16:12 56.78540 -2.94100 21771 ft 347 kts 216°
2026-04-23 16:12 56.76545 -2.96610 21777 ft 349 kts 216°
2026-04-23 16:12 56.74544 -2.99128 21771 ft 350 kts 216°
2026-04-23 16:12 56.72542 -3.01637 21778 ft 350 kts 216°
2026-04-23 16:13 56.70540 -3.04147 21776 ft 350 kts 216°
2026-04-23 16:13 56.66561 -3.09142 21782 ft 350 kts 216°
2026-04-23 16:13 56.64556 -3.11644 21776 ft 349 kts 215°
2026-04-23 16:14 56.62541 -3.14149 21061 ft 356 kts 215°
2026-04-23 16:14 56.60471 -3.16722 20350 ft 363 kts 215°
2026-04-23 16:14 56.58389 -3.19309 19869 ft 362 kts 215°
2026-04-23 16:14 56.56317 -3.21886 19413 ft 360 kts 214°
2026-04-23 16:15 56.54259 -3.24445 18984 ft 358 kts 214°
2026-04-23 16:15 56.52239 -3.26953 18549 ft 355 kts 214°
2026-04-23 16:15 56.50212 -3.29466 18061 ft 353 kts 214°
2026-04-23 16:15 56.48205 -3.31946 17508 ft 342 kts 214°
2026-04-23 16:16 56.46279 -3.34324 16991 ft 329 kts 214°
2026-04-23 16:16 56.44422 -3.36616 16480 ft 318 kts 213°
2026-04-23 16:16 56.42635 -3.38862 15982 ft 308 kts 214°
2026-04-23 16:16 56.40920 -3.41085 15486 ft 300 kts 215°
2026-04-23 16:17 56.39249 -3.43276 14995 ft 294 kts 215°
2026-04-23 16:17 56.37626 -3.45407 14538 ft 291 kts 215°
2026-04-23 16:17 56.35988 -3.47548 13902 ft 290 kts 214°
2026-04-23 16:17 56.34360 -3.49665 13235 ft 287 kts 215°
2026-04-23 16:18 56.32743 -3.51755 12581 ft 285 kts 214°
2026-04-23 16:18 56.31139 -3.53825 11955 ft 282 kts 214°
2026-04-23 16:18 56.29553 -3.55870 11336 ft 280 kts 215°
2026-04-23 16:18 56.27974 -3.57902 10720 ft 278 kts 215°
2026-04-23 16:19 56.26404 -3.59917 10094 ft 276 kts 215°
2026-04-23 16:19 56.24845 -3.61913 9429 ft 274 kts 214°
2026-04-23 16:19 56.23304 -3.63882 8943 ft 266 kts 214°
2026-04-23 16:19 56.21836 -3.65764 8822 ft 263 kts 214°
2026-04-23 16:20 56.20345 -3.67694 8694 ft 264 kts 217°
2026-04-23 16:20 56.19042 -3.69993 8391 ft 264 kts 231°
2026-04-23 16:20 56.17934 -3.72625 8076 ft 263 kts 231°
2026-04-23 16:20 56.16834 -3.75234 7777 ft 262 kts 231°
2026-04-23 16:21 56.15735 -3.77829 7520 ft 259 kts 231°
2026-04-23 16:21 56.14556 -3.80253 7469 ft 258 kts 217°
2026-04-23 16:21 56.12984 -3.81749 7474 ft 257 kts 194°
2026-04-23 16:21 56.11220 -3.82001 7473 ft 256 kts 171°
2026-04-23 16:22 56.09504 -3.81159 7476 ft 257 kts 162°
2026-04-23 16:22 56.07828 -3.80190 7475 ft 256 kts 162°
2026-04-23 16:22 56.06130 -3.79221 7478 ft 256 kts 163°
2026-04-23 16:22 56.04432 -3.78264 7475 ft 256 kts 163°
2026-04-23 16:23 56.02732 -3.77309 7477 ft 256 kts 163°
2026-04-23 16:23 56.01032 -3.76353 7480 ft 256 kts 162°
2026-04-23 16:23 55.99332 -3.75395 7478 ft 256 kts 163°
2026-04-23 16:23 55.97633 -3.74440 7476 ft 256 kts 163°
2026-04-23 16:24 55.95931 -3.73485 7477 ft 256 kts 163°
2026-04-23 16:24 55.94256 -3.72544 7483 ft 256 kts 162°
2026-04-23 16:24 55.92561 -3.71593 7478 ft 256 kts 163°
2026-04-23 16:24 55.90852 -3.70634 7222 ft 261 kts 162°
2026-04-23 16:25 55.89121 -3.69664 7002 ft 257 kts 162°
2026-04-23 16:25 55.87431 -3.68722 6897 ft 254 kts 162°
2026-04-23 16:25 55.85744 -3.67781 6843 ft 254 kts 163°
2026-04-23 16:25 55.84040 -3.66832 6454 ft 260 kts 162°
2026-04-23 16:26 55.82344 -3.65886 6297 ft 252 kts 162°
2026-04-23 16:26 55.80708 -3.64974 6219 ft 250 kts 163°
2026-04-23 16:26 55.79050 -3.64053 6154 ft 250 kts 162°
2026-04-23 16:26 55.77392 -3.63131 6048 ft 249 kts 162°
2026-04-23 16:27 55.75743 -3.62210 5959 ft 248 kts 162°
2026-04-23 16:27 55.74087 -3.61320 5967 ft 249 kts 168°
2026-04-23 16:27 55.72381 -3.61465 5964 ft 250 kts 200°
2026-04-23 16:27 55.71008 -3.63331 5960 ft 255 kts 235°
2026-04-23 16:28 55.70502 -3.66252 5950 ft 247 kts 271°
2026-04-23 16:28 55.71001 -3.69054 5950 ft 238 kts 305°
2026-04-23 16:28 55.72235 -3.70877 5984 ft 236 kts 336°
2026-04-23 16:28 55.73773 -3.71950 5968 ft 238 kts 339°
2026-04-23 16:29 55.75281 -3.73127 5871 ft 237 kts 328°
2026-04-23 16:29 55.76547 -3.74963 5516 ft 235 kts 313°
2026-04-23 16:29 55.77729 -3.76958 5158 ft 236 kts 325°
2026-04-23 16:29 55.79244 -3.77915 4839 ft 231 kts 359°
2026-04-23 16:30 55.80766 -3.77318 4510 ft 224 kts 34°
2026-04-23 16:30 55.81897 -3.75487 4473 ft 220 kts 56°
2026-04-23 16:30 55.82695 -3.73278 4495 ft 207 kts 63°
2026-04-23 16:30 55.83413 -3.71187 4468 ft 192 kts 62°
2026-04-23 16:31 55.84102 -3.69191 4467 ft 184 kts 62°
2026-04-23 16:31 55.84752 -3.67309 4461 ft 175 kts 63°
2026-04-23 16:31 55.85386 -3.65465 4463 ft 175 kts 63°
2026-04-23 16:31 55.86229 -3.63904 4465 ft 181 kts 29°
2026-04-23 16:32 55.87484 -3.63638 4475 ft 188 kts 348°
2026-04-23 16:32 55.88646 -3.64676 4477 ft 188 kts 319°
2026-04-23 16:32 55.89287 -3.66612 4479 ft 183 kts 275°
2026-04-23 16:32 55.89107 -3.68765 4457 ft 173 kts 243°
2026-04-23 16:33 55.88578 -3.70650 4199 ft 172 kts 232°
2026-04-23 16:33 55.87725 -3.72032 3906 ft 164 kts 201°
2026-04-23 16:33 55.86637 -3.72410 3682 ft 157 kts 171°
2026-04-23 16:33 55.85621 -3.71759 3892 ft 159 kts 145°
2026-04-23 16:34 55.84882 -3.70296 3949 ft 162 kts 117°
2026-04-23 16:34 55.84648 -3.68346 3897 ft 165 kts 89°
2026-04-23 16:34 55.85035 -3.66416 3741 ft 169 kts 62°
2026-04-23 16:34 55.85650 -3.64644 3584 ft 168 kts 63°
2026-04-23 16:35 55.86237 -3.62940 3326 ft 155 kts 63°
2026-04-23 16:35 55.86776 -3.61366 3119 ft 147 kts 62°
2026-04-23 16:35 55.87302 -3.59832 2935 ft 144 kts 63°
2026-04-23 16:35 55.87822 -3.58309 2736 ft 143 kts 63°
2026-04-23 16:36 55.88337 -3.56805 2551 ft 143 kts 62°
2026-04-23 16:36 55.88850 -3.55304 2347 ft 142 kts 62°
2026-04-23 16:36 55.89361 -3.53807 2151 ft 141 kts 62°
2026-04-23 16:36 55.89871 -3.52317 1952 ft 141 kts 62°
2026-04-23 16:37 55.90380 -3.50825 1755 ft 141 kts 63°
2026-04-23 16:37 55.90887 -3.49338 1564 ft 139 kts 61°
2026-04-23 16:37 55.91396 -3.47858 1331 ft 141 kts 60°
2026-04-23 16:37 55.91910 -3.46410 1211 ft 137 kts 60°
2026-04-23 16:38 55.92410 -3.44982 977 ft 138 kts 58°
2026-04-23 16:38 55.92869 -3.43530 795 ft 133 kts 60°
2026-04-23 16:38 55.93347 -3.42109 627 ft 133 kts 59°
2026-04-23 16:38 55.93836 -3.40690 386 ft 133 kts 59°
2026-04-23 16:39 55.94307 -3.39299 207 ft 131 kts 59°
2026-04-23 16:39 55.94754 -3.37970 115 ft 113 kts 59°
2026-04-23 16:39 55.95044 -3.37123 112 ft 42 kts 58°
2026-04-23 16:39 55.95181 -3.36724 113 ft 18 kts 59°
2026-04-23 16:40 55.95250 -3.36511 112 ft 14 kts 63°
2026-04-23 16:40 55.95211 -3.36372 114 ft 15 kts 146°
2026-04-23 16:40 55.95165 -3.36322 113 ft 0 kts 147°
2026-04-23 16:40 55.95156 -3.36301 116 ft 5 kts 125°
2026-04-23 16:41 55.95147 -3.36265 115 ft 5 kts 114°
2026-04-23 16:41 55.95124 -3.36164 113 ft 12 kts 110°
2026-04-23 16:41 55.95098 -3.36022 113 ft 13 kts 109°
2026-04-23 16:41 55.95064 -3.35897 114 ft 12 kts 116°
2026-04-23 16:42 55.95026 -3.35839 114 ft 11 kts 170°
2026-04-23 16:42 55.94922 -3.35820 112 ft 13 kts 134°
2026-04-23 16:42 55.94876 -3.35671 113 ft 14 kts 118°
2026-04-23 16:42 55.94873 -3.35661 115 ft 0 kts 118°
2026-04-23 16:43 55.94873 -3.35660 115 ft 0 kts 118°
2026-04-23 16:43 55.94861 -3.35638 114 ft 2 kts 151°
2026-04-23 16:43 55.94841 -3.35644 115 ft 4 kts 199°
2026-04-23 16:43 55.94822 -3.35661 113 ft 5 kts 206°
2026-04-23 16:44 55.94811 -3.35670 115 ft 2 kts 207°
2026-04-23 16:44 55.94799 -3.35682 115 ft 1 kts 208°
2026-04-23 16:44 55.94796 -3.35685 115 ft 1 kts 208°
2026-04-23 16:44 55.94795 -3.35686 115 ft 0 kts 208°